Regional Weather Roundup
Issued by NWS Upton, NY

Home | Current Version | Previous Version | Text Only | Print | Product List | Glossary On
Versions: 1 2 3 4 5 6 7 8 9 10 11 12 13 14 15 16 17 18 19 20 21 22 23 24 25 26 27 28 29 30 31 32 33 34 35 36 37 38 39 40 41 42 43 44 45 46 47 48 49 50
000
ASUS41 KOKX 212209
RWROKX

REGIONAL WEATHER ROUNDUP
NATIONAL WEATHER SERVICE NEW YORK NY
500 PM EST TUE NOV 21 2017

NOTE: "FAIR" INDICATES FEW OR NO CLOUDS BELOW 12,000 FEET WITH NO
SIGNIFICANT WEATHER AND/OR OBSTRUCTIONS TO VISIBILITY.

NYZ071-072-176-178-NJZ106-104-212300-
NEW YORK CITY METRO AREA

CITY           SKY/WX    TMP DP  RH WIND       PRES   REMARKS
Central Park   PTCLDY    54  29  38 VRB3      30.04S
Bronx Bot Gard   N/A     54  30  40 SW9       30.02F
Bronx Lehman C   N/A     55  32  41 SW7         N/A
LaGuardia APRT MOCLDY    56  39  53 S8        30.02S
Queens College   N/A     54  32  43 S7          N/A
Kennedy INTL   MOCLDY    52  44  74 S17       30.04S
Breezy Point     N/A     52 N/A N/A S8          N/A
Brooklyn Coll    N/A     54  32  43 SE5         N/A
Staten Island    N/A     54  32  43 S3          N/A
Newark/Liberty MOCLDY    52  29  41 S7        30.02S
Teterboro      CLEAR     57  29  34 S10       30.01S
$$

NYZ177-179-078>081-212300-
LONG ISLAND NEW YORK

CITY           SKY/WX    TMP DP  RH WIND       PRES   REMARKS
Jones Beach      N/A     54 N/A N/A SW15G24     N/A
Wantagh          N/A     54  32  43 S12         N/A
Matinecock PT    N/A     52 N/A N/A SW8G14      N/A
Farmingdale    CLOUDY    53  40  61 SW13      30.05R
MacArthur/ISP  CLOUDY    54  41  61 SW14      30.05R
Shirley        CLOUDY    53  42  66 S13G20    30.05F
Mt Sinai Harb    N/A    N/A N/A N/A SW7G13      N/A
Westhampton    CLEAR     54  40  59 S14G21    30.06F
East Hampton   FAIR      53  40  62 SW9G17    30.04F
Southold         N/A     52  32  46 S12         N/A
Montauk          N/A     56  43  61 SW13G22   30.06F
$$

NYZ052-065-067-212300-
HUDSON VALLEY

CITY           SKY/WX    TMP DP  RH WIND       PRES   REMARKS
White Plains   CLEAR     51  32  48 S7        30.01R
Larchmont Harb   N/A     52 N/A N/A S17         N/A
Croton On Huds   N/A     54 N/A N/A S6          N/A
Somers           N/A     50  32  50 S6          N/A
Brewster         N/A     46  32  57 S3          N/A
Newburgh       NOT AVBL
Montgomery     CLEAR     48  29  47 S8        29.96S
Suffern          N/A     50  32  50 S2          N/A
Poughkeepsie   PTCLDY    52  28  39 S5        29.97F
Albany         MOCLDY    54  24  31 S20G31    29.88F
$$

NJZ001-105-106-008-010-013-015-019>022-104-212300-
NEW JERSEY

CITY           SKY/WX    TMP DP  RH WIND       PRES   REMARKS
Newark/Liberty MOCLDY    52  29  41 S7        30.02S
Teterboro      CLEAR     57  29  34 S10       30.01S
Caldwell       CLEAR     54  31  41 SW5       30.01F
Somerville     PTCLDY    50  32  50 CALM      30.00F
Linden         FAIR      54  28  36 CALM      30.02S
Perth Amboy      N/A     54 N/A N/A S3          N/A
Sussex         CLEAR     52  31  44 S8        29.99R
Andover          N/A     50  30  46 S5        30.00R
Trenton        CLOUDY    52  31  44 CALM      30.01F
Millville      MOCLDY    55  43  63 VRB5      30.05F
Atlantic City  CLOUDY    54  42  64 S9G21     30.06S
Wrightstown    PTCLDY    54  36  50 SW10      30.01R
Toms River     CLOUDY    50  39  66 S5        30.05S
Belmar         NOT AVBL
$$

PAZ047>061-062-071-212300-
EASTERN PENNSYLVANIA

CITY           SKY/WX    TMP DP  RH WIND       PRES   REMARKS
Philadelphia   CLOUDY    55  36  48 S9G17     30.03F
Allentown      CLEAR     50  30  46 SW8       30.00R
Scranton       CLOUDY    51  25  36 S9G18     29.95R
$$

CTZ002-004>006-009-010-012-RIZ004-006-007-MAZ004-011-015-212300-
SOUTHERN NEW ENGLAND
 IN CT

CITY           SKY/WX    TMP DP  RH WIND       PRES   REMARKS
Bradley INTL   PTCLDY    51  36  56 S14       29.99F
Hartford       CLEAR     51  37  58 S7        30.00F
Danbury        CLEAR     48  32  53 S5        30.02R
Wtrbury/Oxford CLEAR     49  36  61 S8        30.01S
Norwalk Harbor   N/A     52 N/A N/A S18         N/A
Bridgeport     CLEAR     53  41  63 SW17      30.04R
Meriden        CLEAR     50  37  61 S8        30.02S
New Haven      PTCLDY    53  40  61 S9        30.04R
Chester        FAIR      50  37  62 S9G17     30.02F
Groton         CLOUDY    53  41  63 SW14      30.04F
Wilimantic     CLEAR     52  36  54 S10       30.03S

 IN RI

CITY           SKY/WX    TMP DP  RH WIND       PRES   REMARKS
Providence     MOCLDY    53  39  59 SW14      30.05S
Block Island   CLEAR     55  43  63 SW21G28   30.06F
Westerly       CLEAR     55  41  59 SW12      30.06F
 IN MA

CITY           SKY/WX    TMP DP  RH WIND       PRES   REMARKS
Boston         PTCLDY    53  36  52 SW15      30.00S
Worcester      CLEAR     49  31  49 S15G25    29.97F
Westfield      CLEAR     50  33  52 S13       29.96F
Provincetown   CLEAR     53  44  71 SW20G25   30.05F
Nantucket      CLEAR     54  48  80 SW20G26   30.10F
$$

ANZ330-335-338-340-345-350-353-355-212300-
COASTAL MARINE OBSERVATIONS


STATION/POSITION TIME  SKY/WX   TEMP    WIND        PRES    VSBY  WAVE
                                AIR SEA DIR/SP/G                  HT/PER
                 (UTC)          (F)     (DEG/KT/KT) (MB)    (MI)  (FT/S)
NY HARB ENTRANCE 2150            56 58  210/ 23/ 27 1016.0          6/ 7
20 S FIRE ISLAND 2150            58 57  210/ 23/ 31 1017.2          7/ 7
GREAT SOUTH BAY  2130            52 46  220/ 14/ 17   N/A
HUDSON CANYON    2050            59 59  210/ 21/ 25 1019.2          7/ 7
KINGS POINT      2130            54 50  230/ 12/ 15 1017.7
EXECUTION ROCKS  2145            54     170/ 10/ 14   N/A
WESTERN LI SOUND 2119            55     190/ 12/ 16   N/A           0
CENTRAL LI SOUND NOT AVBL
ROBBINS REEF     2130            56     210/  7/ 10 1017.3
$$


>>>>>>>>>>>>>>>>>>>>>>>>>>>> KEY <<<<<<<<<<<<<<<<<<<<<<<<<<<
>                                                          <
>     SKY/WX - Sky Condition/Present Weather               <
>     TMP    - Temperature in Fahrenheit                   <
>     DP     - Dew Point in Fahrenheit                     <
>     RH     - Relative Humidity in Percent                <
>     WIND   - Direction (from) and Speed in MPH           <
>     PRES   - Mean Sea Level Pressure (inches of Hg)      <
>     WCI    - Wind Chill Index                            <
>     VSB    - VISIBILITY IN MILES                         <
>     HX     - HEAT INDEX                                  <
>     TC     - TEMPERATURE IN CELSIUS                      <
>     VRB    - VARIABLE WIND DIRECTION                     <
>                                                          <
>>>>>>>>>>>>>>>>>>>>>>>>>>>> KEY <<<<<<<<<<<<<<<<<<<<<<<<<<<



USA.gov is the U.S. government's official web portal to all federal, state and local government web resources and services.